Location: Brunembert
(50.7122°N, 1.8935°E)
Time: 04:23:00
(UTC+00:00)

Sich 1 - Pass Details

Date: 22 April 2021
Orbit: 593 x 626 km, 82.5° (Epoch: 06 May)

Event Time Altitude Azimuth Distance (km) Brightness Sun altitude
Rises 23:12:41 0° 341° (NNW) 2,846 7.8 -26.2°
Reaches altitude 10° 23:15:05 10° 331° (NNW) 1,939 6.5 -26.3°
Enters shadow 23:18:27 29° 280° (W) 1,093 4.4 -26.4°
